Location: Unspecified
(35.6961°N, 0.0000°E)
Time: 11:22:04
(UTC+00:00)

Altair - Pass Details

Date: 25 May 2019
Orbit: 1501 x 1683 km, 47.2° (Epoch: 16 June)

Event Time Altitude Azimuth Distance (km) Brightness Sun altitude
Rises 06:34:52 0° 287° (WNW) 4,934 9.6 19.5°
Reaches altitude 10° 06:38:19 10° 294° (WNW) 3,948 9.3 20.2°
Maximum altitude 06:47:53 43° 4° (N) 2,207 8.8 22.1°
Drops below altitude 10° 06:57:16 10° 74° (ENE) 3,879 11.6 23.9°
Sets 07:00:38 0° 81° (E) 4,841 11.5 24.6°
